Sabadell, Spain

9:11 AM CEST en Octubre 18, 2017 (GMT +0200)
Sabadell

Tiempo Historia de LELL - Agosto, 2017

Change the Weather History Date:

Domingo, Agosto 13, 2017

  Actual Average (LEBL) Record (LEBL)
Temperature  
Temperatura media 72 ° F -  
Temperatura máxima 84 ° F 81 ° F 96 ° F (2003)
Temperatura mínima 60 ° F 68 ° F 62 ° F (2006)
Cooling Degree Days 7    
Growing Degree Days 22 (Base 50)    
Moisture  
Punto de rocío 60 ° F    
Average Humidity 64    
Maximum Humidity 83    
Minimum Humidity 42    
Precipitación  
Precipitación 0.00 pul - - ()
Presión al nivel del mar  
Presión al nivel del mar 30.10 pul    
Viento  
Velocidad del viento 3 mph ()    
Velocidad máxima del viento 13 mph    
Max Gust Speed -    
Visibilidad 6.2 Millas    
Eventos      
Averages and records for this station are not official NWS values.
T = Trace of Precipitation, MM = Missing Value Source: Averaged Metar Reports

Daily Weather History Graph

Daily Weather History Graph

Search for Another Location

Airport or City:

Trip Planner

Search our weather history database for the weather conditions in past years. The results will help you decide how hot, cold, wet, or windy it might be!

Date:

Astronomía

Aug. 13, 2017 Salida Puesta
Hora real 6:58 AM CEST 8:53 PM CEST
Crepúsculo civil 6:28 AM CEST 9:23 PM CEST
Crepúsculo náutico 5:51 AM CEST 10:00 PM CEST
Crepúsculo astronómico 5:12 AM CEST 10:39 PM CEST
Luna Sin salida de luna 12:45 PM CEST (8/13)
Horas de luz 14h 55m
Horas de luz
13h 55m
Gibosa menguante, 68% of the Moon is Illuminated
Ago 13
Gibosa menguante
Ago 15
Cuarto menguante
Ago 21
Nueva
Ago 29
Cuarto creciente
Sep 6
Luna llena

Hourly Weather History & Observations

Hora (CEST) Temp. Índice de calor Punto de rocío Humedad Presión Visibilidad Wind Dir Velocidad del viento Velocidad de ráfagas Precip Eventos Condiciones
12:00 AM 68.0 ° F - 59.0 ° F 73% 30.15 pul 6.2 mi Oeste 3.5 mph - N/A   Desconocido
12:30 AM 68.0 ° F - 59.0 ° F 73% 30.15 pul 6.2 mi Variable 2.3 mph - N/A   Desconocido
1:00 AM 68.0 ° F - 59.0 ° F 73% 30.15 pul 6.2 mi Variable 1.2 mph - N/A   Desconocido
1:30 AM 68.0 ° F - 59.0 ° F 73% 30.15 pul 6.2 mi Sin viento Sin viento - N/A   Desconocido
2:00 AM 68.0 ° F - 59.0 ° F 73% 30.15 pul - Sin viento Sin viento - N/A   Despejado
2:30 AM 66.2 ° F - 59.0 ° F 78% 30.12 pul - Sin viento Sin viento - N/A   Despejado
3:00 AM 66.2 ° F - 59.0 ° F 78% 30.12 pul 6.2 mi Sin viento Sin viento - N/A   Desconocido
3:30 AM 64.4 ° F - 59.0 ° F 83% 30.12 pul 6.2 mi Sin viento Sin viento - N/A   Desconocido
4:00 AM 64.4 ° F - 59.0 ° F 83% 30.12 pul 6.2 mi Oeste 1.2 mph - N/A   Desconocido
4:30 AM 62.6 ° F - 57.2 ° F 82% 30.09 pul 6.2 mi Oeste 2.3 mph - N/A   Desconocido
5:00 AM 62.6 ° F - 57.2 ° F 82% 30.09 pul - Sin viento Sin viento - N/A   Desconocido
5:30 AM 62.6 ° F - 57.2 ° F 82% 30.09 pul - Sin viento Sin viento - N/A   Desconocido
6:00 AM 60.8 ° F - 55.4 ° F 82% 30.09 pul - Oeste 2.3 mph - N/A   Desconocido
6:30 AM 62.6 ° F - 55.4 ° F 77% 30.09 pul - Oeste 1.2 mph - N/A   Desconocido
7:00 AM 60.8 ° F - 55.4 ° F 82% 30.09 pul - Oeste 2.3 mph - N/A   Desconocido
7:30 AM 60.8 ° F - 55.4 ° F 82% 30.09 pul - Sin viento Sin viento - N/A   Desconocido
8:00 AM 64.4 ° F - 57.2 ° F 77% 30.09 pul - Sin viento Sin viento - N/A   Despejado
9:00 AM 69.8 ° F - 57.2 ° F 64% 30.12 pul - Variable 1.2 mph - N/A   Despejado
10:00 AM 73.4 ° F - 57.2 ° F 57% 30.12 pul - Sur 1.2 mph - N/A   Despejado
10:30 AM 77.0 ° F - 59.0 ° F 54% 30.12 pul - Sin viento Sin viento - N/A   Despejado
11:00 AM 78.8 ° F - 57.2 ° F 47% 30.12 pul - ESE 2.3 mph - N/A   Despejado
11:30 AM 80.6 ° F 80.8 ° F 57.2 ° F 45% 30.12 pul - Variable 3.5 mph - N/A   Despejado
12:00 PM 80.6 ° F 81.1 ° F 59.0 ° F 48% 30.12 pul - SE 6.9 mph - N/A   Despejado
12:30 PM 80.6 ° F 81.1 ° F 59.0 ° F 48% 30.12 pul - ESE 9.2 mph - N/A   Despejado
1:00 PM 82.4 ° F 82.5 ° F 59.0 ° F 45% 30.12 pul - Este 9.2 mph - N/A   Despejado
1:30 PM 82.4 ° F 83.9 ° F 64.4 ° F 54% 30.09 pul 6.2 mi Este 11.5 mph - N/A   Parcialmente nublado
2:00 PM 82.4 ° F 83.9 ° F 64.4 ° F 54% 30.09 pul 6.2 mi ESE 12.7 mph - N/A   Parcialmente nublado
2:30 PM 84.2 ° F 85.6 ° F 64.4 ° F 51% 30.09 pul 6.2 mi ESE 12.7 mph - N/A   Parcialmente nublado
3:00 PM 84.2 ° F 85.6 ° F 64.4 ° F 51% 30.09 pul 6.2 mi SE 12.7 mph - N/A   Parcialmente nublado
3:30 PM 84.2 ° F 85.6 ° F 64.4 ° F 51% 30.06 pul 6.2 mi ESE 11.5 mph - N/A   Parcialmente nublado
4:00 PM 84.2 ° F 85.0 ° F 62.6 ° F 48% 30.06 pul 6.2 mi ESE 12.7 mph - N/A   Parcialmente nublado
4:30 PM 84.2 ° F 85.0 ° F 62.6 ° F 48% 30.06 pul 6.2 mi SE 12.7 mph - N/A   Parcialmente nublado
5:00 PM 84.2 ° F 85.0 ° F 62.6 ° F 48% 30.06 pul 6.2 mi Sur 8.1 mph - N/A   Parcialmente nublado
5:30 PM 84.2 ° F 83.8 ° F 59.0 ° F 42% 30.06 pul 6.2 mi Sur 9.2 mph - N/A   Parcialmente nublado
6:00 PM 82.4 ° F 83.9 ° F 64.4 ° F 54% 30.06 pul 6.2 mi Sur 10.4 mph - N/A   Parcialmente nublado
6:30 PM 82.4 ° F 83.4 ° F 62.6 ° F 51% 30.06 pul 6.2 mi SSE 9.2 mph - N/A   Parcialmente nublado
7:00 PM 84.2 ° F 85.6 ° F 64.4 ° F 51% 30.04 pul 6.2 mi Sur 8.1 mph - N/A   Parcialmente nublado
8:00 PM 80.6 ° F 81.8 ° F 62.6 ° F 54% 30.06 pul - SSE 9.2 mph - N/A   Despejado
8:30 PM 78.8 ° F - 64.4 ° F 61% 30.06 pul - SSE 6.9 mph - N/A   Despejado
9:00 PM 78.8 ° F - 64.4 ° F 61% 30.06 pul 6.2 mi SSE 4.6 mph - N/A   Desconocido
9:30 PM 77.0 ° F - 64.4 ° F 65% 30.06 pul 6.2 mi Variable 2.3 mph - N/A   Desconocido
10:00 PM 77.0 ° F - 64.4 ° F 65% 30.06 pul 6.2 mi Sur 2.3 mph - N/A   Desconocido
10:30 PM 75.2 ° F - 64.4 ° F 69% 30.09 pul 6.2 mi Sin viento Sin viento - N/A   Desconocido
11:00 PM 73.4 ° F - 64.4 ° F 73% 30.09 pul 6.2 mi Sin viento Sin viento - N/A   Desconocido
11:30 PM 71.6 ° F - 64.4 ° F 78% 30.09 pul 6.2 mi Variable 1.2 mph - N/A   Desconocido